Home > Weather > Barrie > Past weeks

Flag for Canada Past Weather in Barrie, Ontario, Canada — Yesterday and Last 2 Weeks

Now
61 °F

Partly sunny.


Feels Like: 61 °F
Forecast: 56 / 66 °F
Wind: 5 mph from Southeast

Location: Borden

Current Time: Jul 1, 2016 at 11:22:44 AM

Latest Report: Jul 1, 2016 at 11:00 AM


Visibility: 9 mi

Pressure: 29.84 "Hg

Humidity: 94%

Dew Point: 59 °F

Location of BarrieLocation

Past Weather in Barrie — Graph

°F

Barrie Temperature Yesterday

Maximum temperature yesterday: 84 °F (at 3:00 PM)
Minimum temperature yesterday: 39 °F (at 3:00 AM)
Average temperature yesterday: 64 °F

High & Low Weather Summary for the Past Weeks

 TemperatureHumidityPressure
High91 °F (Jun 19, 2:00 PM)100% (Jun 17, 4:00 AM)30.26 "Hg (Jun 17, 4:00 AM)
Low39 °F (Jun 30, 3:00 AM)25% (Jun 18, 12:00 PM)29.75 "Hg (Jun 20, 6:00 PM)
Average68 °F61%29.99 "Hg
* Reported Jun 16 10:00 AM — Jul 1 10:00 AM, Barrie, Weather by CustomWeather, © 2016

Note: Actual official high and low records may vary slightly from our data, if they occured in-between our weather recording intervals... More about our weather records

Advertising

Barrie Weather History for the Previous 24 Hours

Scroll right to see more
 ConditionsComfort  
Time TempWeatherWind HumidityBarometerVisibility
10:00 AM
Fri, Jul 1
61 °FRain. Overcast.3 mph88%29.86 "Hg4 mi
9:59 AM61 °FRain. Overcast.3 mph88%29.86 "Hg4 mi
9:00 AM59 °FLight rain. Overcast.10 mph82%29.86 "Hg9 mi
8:00 AM63 °FPassing clouds.5 mph59%29.84 "Hg9 mi
7:00 AM61 °FScattered clouds.3 mph63%29.85 "Hg9 mi
6:00 AM57 °FOvercast.No wind72%29.86 "Hg9 mi
5:00 AM55 °FPassing clouds.6 mph72%29.87 "Hg9 mi
4:00 AM55 °FPassing clouds.5 mph72%29.88 "Hg9 mi
3:00 AM57 °FClear.6 mph72%29.89 "Hg9 mi
2:00 AM54 °FClear.No wind77%29.90 "Hg9 mi
1:00 AM54 °FPassing clouds.No wind77%29.92 "Hg9 mi
12:00 AM57 °FClear.No wind67%29.93 "Hg9 mi
11:00 PM
Thu, Jun 30
63 °FPassing clouds.3 mph59%29.94 "Hg9 mi
10:00 PM68 °FOvercast.5 mph49%29.95 "Hg9 mi
9:00 PM72 °FOvercast.6 mph44%29.95 "Hg9 mi
8:00 PM75 °FPartly sunny.7 mph39%29.95 "Hg9 mi
7:00 PM77 °FPassing clouds.7 mph36%29.95 "Hg9 mi
6:00 PM82 °FPassing clouds.7 mph28%29.94 "Hg9 mi
5:00 PM84 °FPassing clouds.10 mph25%29.95 "Hg9 mi
4:00 PM84 °FScattered clouds.9 mph27%29.96 "Hg9 mi
3:00 PM84 °FSunny.7 mph25%29.96 "Hg9 mi
2:00 PM82 °FSunny.8 mph26%29.98 "Hg9 mi
1:00 PM79 °FSunny.6 mph32%29.99 "Hg9 mi
12:00 PM77 °FSunny.6 mph32%30.01 "Hg9 mi
11:00 AM75 °FSunny.7 mph34%30.03 "Hg9 mi
Weather by CustomWeather, © 2016

See weather overviewHow to use our weather pages